H1 CPF 2 NER 2024 6 29 9 181 01 glonass131 H2 1301901 9131 39155 2024 6 29 0 0 0 2024 7 2 23 45 0 900 1 1 0 0 0 1 H9 10 0 60490 0.00000 0 -19193225.914 -7175353.840 15279508.329 10 0 60490 900.00000 0 -17174762.878 -7108386.791 17545812.667 10 0 60490 1800.00000 0 -14900948.514 -7216712.657 19473425.008 10 0 60490 2700.00000 0 -12430836.455 -7528387.346 21025135.430 10 0 60490 3600.00000 0 -9829350.601 -8060244.942 22170940.329 10 0 60490 4500.00000 0 -7164796.239 -8817032.914 22888613.425 10 0 60490 5400.00000 0 -4506241.765 -9791061.855 23164133.969 10 0 60490 6300.00000 0 -1920876.679 -10962385.561 22991964.345 10 0 60490 7200.00000 0 528547.341 -12299505.878 22375171.432 10 0 60490 8100.00000 0 2786088.500 -13760575.513 21325388.411 10 0 60490 9000.00000 0 4804703.350 -15295051.674 19862616.120 10 0 60490 9900.00000 0 6547965.807 -16845734.588 18014865.612 10 0 60490 10800.00000 0 7991345.316 -18351108.686 15817646.305 10 0 60490 11700.00000 0 9122990.275 -19747890.870 13313306.913 10 0 60490 12600.00000 0 9943982.765 -20973680.733 10550239.380 10 0 60490 13500.00000 0 10468052.364 -21969602.138 7581959.005 10 0 60490 14400.00000 0 10720759.422 -22682824.760 4466076.893 10 0 60490 15300.00000 0 10738180.729 -23068858.003 1263183.738 10 0 60490 16200.00000 0 10565151.991 -23093518.338 -1964333.551 10 0 60490 17100.00000 0 10253141.162 -22734484.235 -5153518.798 10 0 60490 18000.00000 0 9857843.041 -21982369.894 -8242091.812 10 0 60490 18900.00000 0 9436598.324 -20841269.303 -11169685.758 10 0 60490 19800.00000 0 9045748.514 -19328744.969 -13879050.247 10 0 60490 20700.00000 0 8738041.315 -17475259.614 -16317194.131 10 0 60490 21600.00000 0 8560199.320 -15323073.622 -18436443.347 10 0 60490 22500.00000 0 8550757.755 -12924654.199 -20195391.064 10 0 60490 23400.00000 0 8738265.283 -10340663.618 -21559719.878 10 0 60490 24300.00000 0 9139925.892 -7637612.059 -22502878.912 10 0 60490 25200.00000 0 9760740.461 -4885274.820 -23006602.099 10 0 60490 26100.00000 0 10593184.679 -2153983.687 -23061257.638 10 0 60490 27000.00000 0 11617436.529 488092.917 -22666022.477 10 0 60490 27900.00000 0 12802142.725 2977566.476 -21828879.575 10 0 60490 28800.00000 0 14105690.277 5258232.102 -20566439.466 10 0 60490 29700.00000 0 15477927.807 7283159.747 -18903591.350 10 0 60490 30600.00000 0 16862262.312 9016387.085 -16872992.349 10 0 60490 31500.00000 0 18198041.445 10434145.694 -14514406.746 10 0 60490 32400.00000 0 19423119.761 11525572.345 -11873909.821 10 0 60490 33300.00000 0 20476500.227 12292879.195 -9002973.366 10 0 60490 34200.00000 0 21300939.708 12750979.507 -5957451.978 10 0 60490 35100.00000 0 21845409.360 12926588.338 -2796490.827 10 0 60490 36000.00000 0 22067307.572 12856839.298 418623.341 10 0 60490 36900.00000 0 21934333.979 12587478.259 3625645.469 10 0 60490 37800.00000 0 21425947.679 12170711.932 6762567.125 10 0 60490 38700.00000 0 20534350.312 11662802.866 9768800.781 10 0 60490 39600.00000 0 19264954.459 11121512.212 12586331.688 10 0 60490 40500.00000 0 17636319.040 10603497.129 15160816.727 10 0 60490 41400.00000 0 15679555.002 10161770.949 17442610.927 10 0 60490 42300.00000 0 13437226.028 9843331.088 19387703.851 10 0 60490 43200.00000 0 10961789.130 9687052.479 20958549.895 10 0 60490 44100.00000 0 8313638.308 9721933.222 22124778.392 10 0 60490 45000.00000 0 5558830.192 9965764.824 22863771.394 10 0 60490 45900.00000 0 2766583.207 10424282.243 23161099.090 10 0 60490 46800.00000 0 6650.860 11090829.636 23010804.940 10 0 60490 47700.00000 0 -2653324.950 11946557.034 22415534.772 10 0 60490 48600.00000 0 -5150373.654 12961141.720 21386506.450 10 0 60490 49500.00000 0 -7428564.711 14094006.744 19943319.047 10 0 60490 50400.00000 0 -9441088.364 15295988.531 18113603.097 10 0 60490 51300.00000 0 -11151962.505 16511386.720 15932516.138 10 0 60490 52200.00000 0 -12537294.323 17680312.933 13442090.622 10 0 60490 53100.00000 0 -13586043.098 18741241.906 10690444.248 10 0 60490 54000.00000 0 -14300250.769 19633658.884 7730865.749 10 0 60490 54900.00000 0 -14694728.885 20300691.994 4620792.138 10 0 60490 55800.00000 0 -14796213.409 20691617.672 1420696.284 10 0 60490 56700.00000 0 -14642021.654 20764131.580 -1807093.786 10 0 60490 57600.00000 0 -14278267.265 20486286.428 -4999620.358 10 0 60490 58500.00000 0 -13757708.628 19838011.630 -8094541.004 10 0 60490 59400.00000 0 -13137322.654 18812147.460 -11031367.007 10 0 60490 60300.00000 0 -12475708.066 17414946.723 -13752668.726 10 0 60490 61200.00000 0 -11830430.429 15666020.162 -16205221.869 10 0 60490 62100.00000 0 -11255423.927 13597726.074 -18341070.007 10 0 60490 63000.00000 0 -10798562.585 11254028.747 -20118480.405 10 0 60490 63900.00000 0 -10499506.156 8688873.550 -21502772.846 10 0 60490 64800.00000 0 -10387913.792 5964147.431 -22467004.102 10 0 60490 65700.00000 0 -10482102.322 3147311.400 -22992494.194 10 0 60490 66600.00000 0 -10788206.369 308805.587 -23069184.224 10 0 60490 67500.00000 0 -11299875.474 -2480663.230 -22695819.469 10 0 60490 68400.00000 0 -11998520.009 -5152837.188 -21879955.272 10 0 60490 69300.00000 0 -12854093.874 -7644511.996 -20637787.111 10 0 60490 70200.00000 0 -13826378.990 -9899922.117 -18993809.864 10 0 60490 71100.00000 0 -14866715.275 -11872807.919 -16980314.769 10 0 60490 72000.00000 0 -15920101.120 -13528080.239 -14636735.726 10 0 60490 72900.00000 0 -16927574.050 -14843015.430 -12008859.445 10 0 60490 73800.00000 0 -17828769.993 -15807934.112 -9147916.368 10 0 60490 74700.00000 0 -18564552.584 -16426338.756 -6109571.395 10 0 60490 75600.00000 0 -19079601.746 -16714508.026 -2952835.025 10 0 60490 76500.00000 0 -19324853.115 -16700568.412 261083.371 10 0 60490 77400.00000 0 -19259686.761 -16423085.141 3469957.665 10 0 60490 78300.00000 0 -18853774.690 -15929233.959 6611739.886 10 0 60490 79200.00000 0 -18088511.171 -15272632.123 9625745.540 10 0 60490 80100.00000 0 -16957967.488 -14510920.407 12453807.587 10 0 60490 81000.00000 0 -15469332.446 -13703197.445 15041378.368 10 0 60490 81900.00000 0 -13642820.974 -12907413.144 17338560.092 10 0 60490 82800.00000 0 -11511054.768 -12177828.972 19301046.048 10 0 60490 83700.00000 0 -9117940.125 -11562649.734 20890956.448 10 0 60490 84600.00000 0 -6517088.156 -11101924.129 22077554.737 10 0 60490 85500.00000 0 -3769840.858 -10825800.355 22837832.141 10 0 60491 0.00000 0 -942982.416 -10753208.639 23156950.279 10 0 60491 900.00000 0 1893774.030 -10891025.361 23028533.918 10 0 60491 1800.00000 0 4670419.404 -11233754.256 22454807.675 10 0 60491 2700.00000 0 7319300.416 -11763739.110 21446573.709 10 0 60491 3600.00000 0 9777678.865 -12451901.224 20023028.701 10 0 60491 4500.00000 0 11990095.587 -13258973.150 18211421.796 10 0 60491 5400.00000 0 13910441.632 -14137179.773 16046557.537 10 0 60491 6300.00000 0 15503650.559 -15032298.811 13570150.728 10 0 60491 7200.00000 0 16746940.580 -15886016.403 10830043.135 10 0 60491 8100.00000 0 17630553.280 -16638480.150 7879294.937 10 0 60491 9000.00000 0 18157956.232 -17230942.662 4775166.761 10 0 60491 9900.00000 0 18345499.099 -17608383.613 1578011.097 10 0 60491 10800.00000 0 18221536.007 -17721998.145 -1649905.674 10 0 60491 11700.00000 0 17825049.937 -17531444.053 -4845627.154 10 0 60491 12600.00000 0 17203836.687 -17006749.823 -7946751.606 10 0 60491 13500.00000 0 16412325.377 -16129799.459 -10892671.301 10 0 60491 14400.00000 0 15509128.666 -14895327.933 -13625780.097 10 0 60491 15300.00000 0 14554428.155 -13311382.286 -16092623.205 10 0 60491 16200.00000 0 13607307.788 -11399226.302 -18244964.280 10 0 60491 17100.00000 0 12723150.585 -9192691.176 -20040746.894 10 0 60491 18000.00000 0 11951211.294 -6736998.763 -21444929.932 10 0 60491 18900.00000 0 11332469.526 -4087106.743 -22430179.388 10 0 60491 19800.00000 0 10897855.565 -1305645.782 -22977402.538 10 0 60491 20700.00000 0 10666924.473 1539463.709 -23076114.125 10 0 60491 21600.00000 0 10647034.278 4377614.220 -22724628.038 10 0 60491 22500.00000 0 10833061.981 7138223.168 -21930071.834 10 0 60491 23400.00000 0 11207667.678 9753440.149 -20708225.316 10 0 60491 24300.00000 0 11742093.502 12160736.113 -19083188.002 10 0 60491 25200.00000 0 12397461.217 14305266.795 -17086883.793 10 0 60491 26100.00000 0 13126511.273 16141912.979 -14758414.369 10 0 60491 27000.00000 0 13875707.658 17636914.344 -12143275.659 10 0 60491 27900.00000 0 14587617.939 18769031.359 -9292454.206 10 0 60491 28800.00000 0 15203466.783 19530189.761 -6261422.372 10 0 60491 29700.00000 0 15665754.641 19925584.147 -3109052.920 10 0 60491 30600.00000 0 15920831.260 19973239.798 103525.359 10 0 60491 31500.00000 0 15921316.233 19703054.304 3314108.512 10 0 60491 32400.00000 0 15628265.838 19155361.884 6460612.199 10 0 60491 33300.00000 0 15012996.479 18379082.552 9482257.982 10 0 60491 34200.00000 0 14058489.660 17429534.933 12320729.317 10 0 60491 35100.00000 0 12760320.921 16366004.639 14921276.512 10 0 60491 36000.00000 0 11127074.767 15249169.531 17233751.174 10 0 60491 36900.00000 0 9180228.610 14138488.419 19213552.213 10 0 60491 37800.00000 0 6953510.153 13089660.708 20822467.244 10 0 60491 38700.00000 0 4491753.770 12152261.206 22029395.089 10 0 60491 39600.00000 0 1849301.460 11367647.040 22810937.066 10 0 60491 40500.00000 0 -911987.853 10767222.476 23151846.787 10 0 60491 41400.00000 0 -3725041.251 10371133.072 23045330.352 10 0 60491 42300.00000 0 -6520094.775 10187443.407 22493190.960 10 0 60491 43200.00000 0 -9227335.089 10211833.231 21505814.286 10 0 60491 44100.00000 0 -11779553.218 10427826.009 20101993.355 10 0 60491 45000.00000 0 -14114702.459 10807542.206 18308594.180 10 0 60491 45900.00000 0 -16178255.651 11312948.086 16160066.140 10 0 60491 46800.00000 0 -17925264.258 11897550.067 13697803.866 10 0 60491 47700.00000 0 -19322033.017 12508465.674 10969370.416 10 0 60491 48600.00000 0 -20347339.049 13088785.668 8027594.467 10 0 60491 49500.00000 0 -20993142.665 13580128.743 4929557.264 10 0 60491 50400.00000 0 -21264757.961 13925280.948 1735487.921 10 0 60491 51300.00000 0 -21180474.047 14070807.349 -1492411.742 10 0 60491 52200.00000 0 -20770641.111 13969523.459 -4691189.485 10 0 60491 53100.00000 0 -20076258.786 13582719.211 -7798386.970 10 0 60491 54000.00000 0 -19147126.051 12882038.104 -10753280.033 10 0 60491 54900.00000 0 -18039631.278 11850928.599 -13498088.453 10 0 60491 55800.00000 0 -16814277.055 10485603.076 -15979129.111 10 0 60491 56700.00000 0 -15533046.268 8795460.943 -18147887.622 10 0 60491 57600.00000 0 -14256723.083 6802955.965 -19961985.433 10 0 60491 58500.00000 0 -13042284.271 4542911.908 -21386021.708 10 0 60491 59400.00000 0 -11940473.157 2061314.774 -22392272.426 10 0 60491 60300.00000 0 -10993660.161 -586367.470 -22961232.473 10 0 60491 61200.00000 0 -10234081.053 -3337266.458 -23081990.154 10 0 60491 62100.00000 0 -9682527.268 -6123507.926 -22752427.456 10 0 60491 63000.00000 0 -9347542.655 -8874817.784 -21979243.221 10 0 60491 63900.00000 0 -9225158.912 -11521229.692 -20777800.235 10 0 60491 64800.00000 0 -9299178.559 -13995780.420 -19171800.931 10 0 60491 65700.00000 0 -9541990.879 -16237080.354 -17192799.823 10 0 60491 66600.00000 0 -9915883.522 -18191652.436 -14879564.063 10 0 60491 67500.00000 0 -10374791.713 -19815943.241 -12277296.310 10 0 60491 68400.00000 0 -10866408.805 -21077924.296 -9436736.632 10 0 60491 69300.00000 0 -11334567.217 -21958219.339 -6413162.265 10 0 60491 70200.00000 0 -11721788.009 -22450713.497 -3265305.693 10 0 60491 71100.00000 0 -11971890.986 -22562622.137 -54212.671 10 0 60491 72000.00000 0 -12032555.397 -22314019.666 3157937.377 10 0 60491 72900.00000 0 -11857724.040 -21736850.850 6309026.008 10 0 60491 73800.00000 0 -11409750.763 -20873468.297 9338182.999 10 0 60491 74700.00000 0 -10661202.397 -19774758.863 12186944.367 10 0 60491 75600.00000 0 -9596240.898 -18497938.069 14800360.324 10 0 60491 76500.00000 0 -8211528.795 -17104104.609 17128033.651 10 0 60491 77400.00000 0 -6516620.715 -15655656.200 19125070.460 10 0 60491 78300.00000 0 -4533824.513 -14213673.170 20752927.094 10 0 60491 79200.00000 0 -2297536.945 -12835376.955 21980138.806 10 0 60491 80100.00000 0 146920.139 -11571767.461 22782917.753 10 0 60491 81000.00000 0 2744917.112 -10465535.802 23145609.975 10 0 60491 81900.00000 0 5434523.267 -9549337.860 23061003.107 10 0 60491 82800.00000 0 8148822.941 -8844499.711 22530478.738 10 0 60491 83700.00000 0 10818448.404 -8360208.702 21564005.659 10 0 60491 84600.00000 0 13374227.626 -8093224.498 20179972.590 10 0 60491 85500.00000 0 15749839.576 -8028123.476 18404861.528 10 0 60492 0.00000 0 17884368.442 -8138068.044 16272765.762 10 0 60492 900.00000 0 19724652.508 -8386070.827 13824757.971 10 0 60492 1800.00000 0 21227326.955 -8726702.585 11108120.986 10 0 60492 2700.00000 0 22360478.147 -9108174.021 8175449.992 10 0 60492 3600.00000 0 23104835.618 -9474704.857 5083644.541 10 0 60492 4500.00000 0 23454450.846 -9769080.601 1892807.781 10 0 60492 5400.00000 0 23416831.733 -9935288.379 -1334925.843 10 0 60492 6300.00000 0 23012525.104 -9921118.858 -4536611.193 10 0 60492 7200.00000 0 22274163.106 -9680621.730 -7649736.320 10 0 60492 8100.00000 0 21245012.714 -9176307.797 -10613463.544 10 0 60492 9000.00000 0 19977089.430 -8381001.086 -13369841.336 10 0 60492 9900.00000 0 18528915.429 -7279259.165 -15864960.811 10 0 60492 10800.00000 0 16963018.193 -5868298.487 -18050031.870 10 0 60492 11700.00000 0 15343277.202 -4158383.087 -19882355.872 10 0 60492 12600.00000 0 13732232.768 -2172658.382 -21326174.019 10 0 60492 13500.00000 0 12188472.642 53563.978 -22353373.731 10 0 60492 14400.00000 0 10764208.180 2474040.466 -22944038.605 10 0 60492 15300.00000 0 9503143.375 5033296.940 -23086831.234 10 0 60492 16200.00000 0 8438726.738 7668724.570 -22779202.022 10 0 60492 17100.00000 0 7592859.044 10312981.467 -22027420.986 10 0 60492 18000.00000 0 6975109.901 12896598.311 -20846433.359 10 0 60492 18900.00000 0 6582473.866 15350678.058 -19259543.510 10 0 60492 19800.00000 0 6399673.602 17609576.436 -17297935.170 10 0 60492 20700.00000 0 6399994.190 19613451.233 -15000039.142 10 0 60492 21600.00000 0 6546610.232 21310574.702 -12410762.608 10 0 60492 22500.00000 0 6794346.819 22659313.879 -9580596.588 10 0 60492 23400.00000 0 7091797.556 23629698.169 -6564620.302 10 0 60492 24300.00000 0 7383708.317 24204511.224 -3421422.815 10 0 60492 25200.00000 0 7613524.990 24379864.388 -211963.543 10 0 60492 26100.00000 0 7725997.257 24165230.671 3001605.994 10 0 60492 27000.00000 0 7669728.896 23582940.630 6157136.568 10 0 60492 27900.00000 0 7399567.965 22667163.637 9193669.364 10 0 60492 28800.00000 0 6878737.506 21462418.870 12052595.918 10 0 60492 29700.00000 0 6080618.536 20021679.290 14678769.031 10 0 60492 30600.00000 0 4990111.762 18404147.898 17021545.027 10 0 60492 31500.00000 0 3604521.819 16672798.494 19035739.249 10 0 60492 32400.00000 0 1933927.339 14891782.082 20682478.465 10 0 60492 33300.00000 0 1020.953 13123805.109 21929935.687 10 0 60492 34200.00000 0 -2159575.389 11427586.528 22753934.868 10 0 60492 35100.00000 0 -4502493.335 9855497.314 23138415.026 10 0 60492 36000.00000 0 -6973252.879 8451478.645 23075745.439 10 0 60492 36900.00000 0 -9510284.235 7249323.948 22566885.720 10 0 60492 37800.00000 0 -12047256.339 6271395.460 21621386.901 10 0 60492 38700.00000 0 -14515618.654 5527828.700 20257231.992 10 0 60492 39600.00000 0 -16847253.589 5016258.739 18500517.055 10 0 60492 40500.00000 0 -18977131.541 4722080.936 16384976.473 10 0 60492 41400.00000 0 -20845859.395 4619237.012 13951358.930 10 0 60492 42300.00000 0 -22402016.605 4671495.394 11246663.549 10 0 60492 43200.00000 0 -23604180.670 4834173.808 8323248.684 10 0 60492 44100.00000 0 -24422555.791 5056232.997 5237828.764 10 0 60492 45000.00000 0 -24840134.276 5282653.924 2050377.564 10 0 60492 45900.00000 0 -24853339.466 5456997.923 -1177041.172 10 0 60492 46800.00000 0 -24472120.608 5524040.429 -4381492.597 10 0 60492 47700.00000 0 -23719493.448 5432364.815 -7500414.120 10 0 60492 48600.00000 0 -22630544.456 5136803.861 -10472857.317 10 0 60492 49500.00000 0 -21250939.667 4600622.223 -13240701.876 10 0 60492 50400.00000 0 -19635001.003 3797344.083 -15749815.352 10 0 60492 51300.00000 0 -17843432.247 2712145.429 -17951133.800 10 0 60492 52200.00000 0 -15940791.891 1342749.197 -19801639.931 10 0 60492 53100.00000 0 -13992821.385 -300216.711 -21265217.949 10 0 60492 54000.00000 0 -12063743.275 -2193415.108 -22313367.148 10 0 60492 54900.00000 0 -10213644.745 -4301541.376 -22925759.741 10 0 60492 55800.00000 0 -8496057.975 -6578580.193 -23090631.990 10 0 60492 56700.00000 0 -6955839.637 -8969523.676 -22805001.611 10 0 60492 57600.00000 0 -5627438.376 -11412477.821 -22074708.241 10 0 60492 58500.00000 0 -4533621.938 -13841067.669 -20914277.611 10 0 60492 59400.00000 0 -3684715.416 -16187039.357 -19346613.764 10 0 60492 60300.00000 0 -3078379.872 -18382949.259 -17402527.117 10 0 60492 61200.00000 0 -2699937.486 -20364827.342 -15120109.429 10 0 60492 62100.00000 0 -2523226.037 -22074703.528 -12543969.612 10 0 60492 63000.00000 0 -2511943.362 -23462892.300 -9724346.830 10 0 60492 63900.00000 0 -2621422.038 -24489941.470 -6716119.549 10 0 60492 64800.00000 0 -2800756.883 -25128165.680 -3577730.791 10 0 60492 65700.00000 0 -2995193.722 -25362702.943 -370051.164 10 0 60492 66600.00000 0 -3148677.573 -25192052.679 2844798.008 10 0 60492 67500.00000 0 -3206452.493 -24628075.390 6004638.839 10 0 60492 68400.00000 0 -3117603.930 -23695456.339 9048425.875 10 0 60492 69300.00000 0 -2837437.476 -22430657.513 11917407.975 10 0 60492 70200.00000 0 -2329595.200 -20880402.869 14556242.155 10 0 60492 71100.00000 0 -1567822.018 -19099760.455 16914039.718 10 0 60492 72000.00000 0 -537309.139 -17149901.024 18945326.469 10 0 60492 72900.00000 0 764441.002 -15095625.310 20610900.571 10 0 60492 73800.00000 0 2327264.463 -13002761.090 21878573.493 10 0 60492 74700.00000 0 4128515.539 -10935536.070 22723781.394 10 0 60492 75600.00000 0 6133770.671 -8954033.371 23130056.388 10 0 60492 76500.00000 0 8298029.540 -7111833.027 23089349.224 10 0 60492 77400.00000 0 10567366.399 -5453935.556 22602197.115 10 0 60492 78300.00000 0 12880966.284 -4015052.517 21677732.659 10 0 60492 79200.00000 0 15173464.919 -2818334.468 20333532.272 10 0 60492 80100.00000 0 17377498.129 -1874589.419 18595304.993 10 0 60492 81000.00000 0 19426357.268 -1182025.098 16496425.223 10 0 60492 81900.00000 0 21256641.862 -726527.196 14077315.769 10 0 60492 82800.00000 0 22810799.566 -482463.568 11384690.513 10 0 60492 83700.00000 0 24039447.096 -413982.379 8470669.026 10 0 60492 84600.00000 0 24903373.795 -476751.092 5391778.422 10 0 60492 85500.00000 0 25375141.794 -620063.987 2207860.673 10 0 60493 0.00000 0 25440213.049 -789229.459 -1019093.503 10 0 60493 900.00000 0 25097553.021 -928135.650 -4226162.846 10 0 60493 1800.00000 0 24359682.988 -981884.094 -7350736.610 10 0 60493 2700.00000 0 23252176.706 -899377.856 -10331758.315 10 0 60493 3600.00000 0 21812620.879 -635751.387 -13110941.351 10 0 60493 4500.00000 0 20089082.779 -154536.082 -15633932.043 10 0 60493 5400.00000 0 18138149.614 570533.511 -17851394.657 10 0 60493 6300.00000 0 16022623.243 1554152.232 -19719995.054 10 0 60493 7200.00000 0 13808969.002 2798575.831 -21203261.981 10 0 60493 8100.00000 0 11564627.598 4293289.972 -22272307.906 10 0 60493 9000.00000 0 9355304.943 6015231.686 -22906394.704 10 0 60493 9900.00000 0 7242355.300 7929554.127 -23093333.072 10 0 60493 10800.00000 0 5280368.462 9990902.043 -22829708.487 10 0 60493 11700.00000 0 3515062.348 12145143.395 -22120930.307 10 0 60493 12600.00000 0 1981568.647 14331483.137 -20981104.469 10 0 60493 13500.00000 0 703181.767 16484869.174 -19432733.984 10 0 60493 14400.00000 0 -309378.951 18538588.484 -17506254.823 10 0 60493 15300.00000 0 -1058165.842 20426943.775 -15239418.144 10 0 60493 16200.00000 0 -1557653.679 22087898.286 -12676532.624 10 0 60493 17100.00000 0 -1833862.913 23465578.273 -9867583.235 10 0 60493 18000.00000 0 -1922995.791 24512529.302 -6867245.003 10 0 60493 18900.00000 0 -1869645.905 25191633.406 -3733811.958 10 0 60493 19800.00000 0 -1724659.063 25477608.831 -528062.750 10 0 60493 20700.00000 0 -1542737.382 25358031.873 2687914.765 10 0 60493 21600.00000 0 -1379888.461 24833840.443 5851917.334 10 0 60493 22500.00000 0 -1290827.216 23919300.547 8902816.091 10 0 60493 23400.00000 0 -1326439.217 22641438.955 11781720.297 10 0 60493 24300.00000 0 -1531411.153 21038967.074 14433094.061 10 0 60493 25200.00000 0 -1942126.689 19160741.515 16805806.290 10 0 60493 26100.00000 0 -2584914.680 17063825.323 18854095.581 10 0 60493 27000.00000 0 -3474722.142 14811229.611 20538433.515 10 0 60493 27900.00000 0 -4614266.984 12469427.800 21826271.703 10 0 60493 28800.00000 0 -5993706.124 10105743.588 22692659.820 10 0 60493 29700.00000 0 -7590833.827 7785718.535 23120723.973 10 0 60493 30600.00000 0 -9371803.886 5570565.960 23101996.834 10 0 60493 31500.00000 0 -11292348.050 3514814.491 22636593.143 10 0 60493 32400.00000 0 -13299443.086 1664237.195 21733226.460 10 0 60493 33300.00000 0 -15333360.415 54151.083 20409065.425 10 0 60493 34200.00000 0 -17330016.187 -1291842.745 18689430.289 10 0 60493 35100.00000 0 -19223526.779 -2362625.587 16607333.153 10 0 60493 36000.00000 0 -20948865.305 -3159801.346 14202868.135 10 0 60493 36900.00000 0 -22444509.447 -3697398.977 11522460.645 10 0 60493 37800.00000 0 -23654970.115 -4001048.041 8617987.935 10 0 60493 38700.00000 0 -24533094.196 -4106660.429 5545786.081 10 0 60493 39600.00000 0 -25042043.007 -4058672.501 2365561.458 10 0 60493 40500.00000 0 -25156860.878 -3907921.203 -860772.575 10 0 60493 41400.00000 0 -24865564.909 -3709244.015 -4070310.821 10 0 60493 42300.00000 0 -24169707.131 -3518905.321 -7200398.398 10 0 60493 43200.00000 0 -23084382.640 -3391959.971 -10189873.972 10 0 60493 44100.00000 0 -21637681.172 -3379668.242 -12980287.600 10 0 60493 45000.00000 0 -19869603.886 -3527074.714 -15517066.933 10 0 60493 45900.00000 0 -17830490.370 -3870856.750 -17750606.588 10 0 60493 46800.00000 0 -15579022.588 -4437536.698 -19637257.243 10 0 60493 47700.00000 0 -13179890.710 -5242136.068 -21140193.276 10 0 60493 48600.00000 0 -10701220.503 -6287330.534 -22230140.790 10 0 60493 49500.00000 0 -8211872.033 -7563142.686 -22885951.129 10 0 60493 50400.00000 0 -5778724.525 -9047185.964 -23095008.610 10 0 60493 51300.00000 0 -3464062.430 -10705449.206 -22853465.077 10 0 60493 52200.00000 0 -1323172.697 -12493587.929 -22166297.703 10 0 60493 53100.00000 0 597746.424 -14358666.734 -21047190.315 10 0 60493 54000.00000 0 2263278.688 -16241278.136 -19518242.239 10 0 60493 54900.00000 0 3650016.443 -18077947.424 -17609512.118 10 0 60493 55800.00000 0 4747271.921 -19803721.364 -15358407.460 10 0 60493 56700.00000 0 5557246.823 -21354831.394 -12808933.569 10 0 60493 57600.00000 0 6094656.802 -22671319.343 -10010818.068 10 0 60493 58500.00000 0 6385830.341 -23699515.949 -7018529.443 10 0 60493 59400.00000 0 6467323.440 -24394269.212 -3890209.730 10 0 60493 60300.00000 0 6384111.377 -24720830.694 -686542.764 10 0 60493 61200.00000 0 6187435.980 -24656322.591 2530419.710 10 0 60493 62100.00000 0 5932400.555 -24190726.243 5698451.503 10 0 60493 63000.00000 0 5675414.389 -23327352.747 8756342.514 10 0 60493 63900.00000 0 5471594.247 -22082777.853 11645064.312 10 0 60493 64800.00000 0 5372231.386 -20486245.210 14308889.716 10 0 60493 65700.00000 0 5422429.274 -18578563.594 16696446.548 10 0 60493 66600.00000 0 5659009.780 -16410544.073 18761687.183 10 0 60493 67500.00000 0 6108774.263 -14041041.351 20464757.267 10 0 60493 68400.00000 0 6787191.401 -11534679.154 21772748.848 10 0 60493 69300.00000 0 7697566.251 -8959351.966 22660325.066 10 0 60493 70200.00000 0 8830725.612 -6383604.193 23110205.636 10 0 60493 71100.00000 0 10165234.010 -3873992.643 23113504.454 10 0 60493 72000.00000 0 11668133.279 -1492539.071 22669912.826 10 0 60493 72900.00000 0 13296177.546 705623.894 21787724.076 10 0 60493 73800.00000 0 14997515.214 2674317.499 20483697.678 10 0 60493 74700.00000 0 16713750.985 4378007.471 18782763.547 10 0 60493 75600.00000 0 18382304.900 5793050.375 16717569.802 10 0 60493 76500.00000 0 19938972.377 6908443.275 14327880.054 10 0 60493 77400.00000 0 21320579.854 7726044.211 11659829.295 10 0 60493 78300.00000 0 22467625.569 8260252.791 8765050.386 10 0 60493 79200.00000 0 23326794.395 8537162.644 5699686.149 10 0 60493 80100.00000 0 23853239.715 8593219.967 2523305.031 10 0 60493 81000.00000 0 24012534.116 8473443.668 -702259.097 10 0 60493 81900.00000 0 23782203.959 8229281.982 -3914120.129 10 0 60493 82800.00000 0 23152780.033 7916196.675 -7049581.182 10 0 60493 83700.00000 0 22128316.838 7591078.372 -10047378.368 10 0 60493 84600.00000 0 20726356.019 7309604.591 -12848900.519 10 0 60493 85500.00000 0 18977333.300 7123654.988 -15399358.501 99